| time (UTC) | temp F | wind direction | speed MPH | gust MPH | rain 1hr in | rain 24hr in | rain mn in | humidity % | barometer mb |
| 20260903013503 | 73 | 327 | 6.0 | 10.0 | 0.00 | 0.00 | 0.00 | 80 | 1013.3 |
| 20260903013004 | 73 | 326 | 7.0 | 10.0 | 0.00 | 0.00 | 0.00 | 80 | 1013.3 |
| 20260903012503 | 72 | 320 | 6.0 | 10.0 | 0.00 | 0.00 | 0.00 | 79 | 1013.3 |
| 20260903012003 | 72 | 318 | 4.0 | 7.0 | 0.00 | 0.00 | 0.00 | 79 | 1013.3 |
| 20260903011503 | 72 | 322 | 4.0 | 5.0 | 0.00 | 0.00 | 0.00 | 79 | 1013.3 |
| 20260903011003 | 72 | 322 | 4.0 | 5.0 | 0.00 | 0.00 | 0.00 | 79 | 1013.3 |
| 20260903010503 | 72 | 322 | 4.0 | 5.0 | 0.00 | 0.00 | 0.00 | 79 | 1013.3 |
| 20260903010003 | 72 | 327 | 4.0 | 5.0 | 0.00 | 0.00 | 0.00 | 78 | 1013.3 |
| 20260903005503 | 72 | 325 | 3.0 | 5.0 | 0.00 | 0.00 | 0.00 | 77 | 1013.3 |
| 20260903005003 | 72 | 317 | 4.0 | 5.0 | 0.00 | 0.00 | 0.00 | 76 | 1013.3 |
| 20260903004504 | 73 | 316 | 4.0 | 5.0 | 0.00 | 0.00 | 0.00 | 76 | 1013.3 |
| 20260903004004 | 73 | 311 | 5.0 | 8.0 | 0.00 | 0.00 | 0.00 | 75 | 1013.3 |
| 20260903003503 | 73 | 304 | 5.0 | 8.0 | 0.00 | 0.00 | 0.00 | 75 | 1013.3 |
| 20260903003004 | 73 | 308 | 4.0 | 7.0 | 0.00 | 0.00 | 0.00 | 75 | 1013.3 |
| 20260903002504 | 73 | 313 | 5.0 | 5.0 | 0.00 | 0.00 | 0.00 | 75 | 1013.3 |
| 20260903002004 | 73 | 292 | 4.0 | 5.0 | 0.00 | 0.00 | 0.00 | 75 | 1014.3 |
| 20260903001504 | 73 | 276 | 3.0 | 5.0 | 0.00 | 0.00 | 0.00 | 75 | 1014.3 |
| 20260903001004 | 73 | 290 | 1.0 | 4.0 | 0.00 | 0.00 | 0.00 | 75 | 1014.3 |
| 20260903000504 | 73 | 0 | 0.0 | 0.0 | 0.00 | 0.00 | 0.00 | 75 | 1013.3 |
| 20260903000004 | 73 | 0 | 0.0 | 0.0 | 0.00 | 0.00 | 0.00 | 75 | 1013.3 |
| 20260902235718 | 73 | 0 | 0.0 | 0.0 | 0.00 | 0.00 | 0.00 | 75 | 1013.3 |
| 20260902235004 | 73 | 320 | 1.0 | 3.0 | 0.00 | 0.00 | 0.00 | 74 | 1013.3 |
| 20260902234504 | 73 | 331 | 1.0 | 3.0 | 0.00 | 0.00 | 0.00 | 75 | 1013.3 |
| 20260902234004 | 73 | 360 | 1.0 | 2.0 | 0.00 | 0.00 | 0.00 | 74 | 1013.3 |
| 20260902233715 | 73 | 360 | 1.0 | 2.0 | 0.00 | 0.00 | 0.00 | 74 | 1014.3 |
| 20260902233004 | 73 | 356 | 1.0 | 2.0 | 0.00 | 0.00 | 0.00 | 72 | 1014.3 |
| 20260902232503 | 74 | 332 | 0.0 | 2.0 | 0.00 | 0.00 | 0.00 | 72 | 1014.3 |
| 20260902232213 | 74 | 332 | 0.0 | 2.0 | 0.00 | 0.00 | 0.00 | 71 | 1014.3 |
| 20260902231504 | 74 | 0 | 0.0 | 0.0 | 0.00 | 0.00 | 0.00 | 71 | 1014.3 |
| 20260902231214 | 74 | 0 | 0.0 | 0.0 | 0.00 | 0.00 | 0.00 | 71 | 1014.3 |
| 20260902230504 | 74 | 352 | 0.0 | 2.0 | 0.00 | 0.00 | 0.00 | 71 | 1014.3 |
| 20260902230004 | 74 | 354 | 1.0 | 2.0 | 0.00 | 0.00 | 0.00 | 71 | 1014.3 |
| 20260902225504 | 74 | 5 | 0.0 | 2.0 | 0.00 | 0.00 | 0.00 | 70 | 1014.3 |
| 20260902225004 | 75 | 22 | 1.0 | 2.0 | 0.00 | 0.00 | 0.00 | 70 | 1014.3 |
| 20260902224503 | 75 | 26 | 1.0 | 2.0 | 0.00 | 0.00 | 0.00 | 70 | 1014.3 |
| 20260902224004 | 75 | 45 | 0.0 | 2.0 | 0.00 | 0.00 | 0.00 | 69 | 1014.3 |
| 20260902223504 | 75 | 45 | 1.0 | 2.0 | 0.00 | 0.00 | 0.00 | 69 | 1014.3 |
| 20260902223003 | 75 | 42 | 2.0 | 3.0 | 0.00 | 0.00 | 0.00 | 68 | 1014.3 |
| 20260902222504 | 75 | 31 | 1.0 | 3.0 | 0.00 | 0.00 | 0.00 | 68 | 1014.3 |
| 20260902222214 | 75 | 5 | 0.0 | 2.0 | 0.00 | 0.00 | 0.00 | 68 | 1014.3 |
| 20260902221503 | 76 | 0 | 0.0 | 0.0 | 0.00 | 0.00 | 0.00 | 66 | 1014.3 |
| 20260902221215 | 76 | 0 | 0.0 | 0.0 | 0.00 | 0.00 | 0.00 | 66 | 1014.3 |
| 20260902220713 | 77 | 0 | 0.0 | 0.0 | 0.00 | 0.00 | 0.00 | 65 | 1014.3 |
| 20260902220004 | 78 | 0 | 0.0 | 0.0 | 0.00 | 0.00 | 0.00 | 65 | 1014.3 |
| 20260902215503 | 78 | 0 | 0.0 | 0.0 | 0.00 | 0.00 | 0.00 | 65 | 1014.3 |
| 20260902215003 | 78 | 0 | 0.0 | 0.0 | 0.00 | 0.00 | 0.00 | 65 | 1014.3 |
| 20260902214715 | 79 | 0 | 0.0 | 0.0 | 0.00 | 0.00 | 0.00 | 65 | 1014.3 |
| 20260902214005 | 79 | 45 | 0.0 | 1.0 | 0.00 | 0.00 | 0.00 | 66 | 1014.3 |
| 20260902213716 | 79 | 45 | 0.0 | 1.0 | 0.00 | 0.00 | 0.00 | 66 | 1014.3 |
| 20260902213003 | 78 | 45 | 0.0 | 1.0 | 0.00 | 0.00 | 0.00 | 65 | 1014.3 |
| 20260902212503 | 78 | 360 | 0.0 | 1.0 | 0.00 | 0.00 | 0.00 | 65 | 1014.3 |
| 20260902212003 | 78 | 360 | 0.0 | 1.0 | 0.00 | 0.00 | 0.00 | 64 | 1014.3 |
| 20260902211503 | 78 | 315 | 0.0 | 1.0 | 0.00 | 0.00 | 0.00 | 64 | 1014.3 |
| 20260902211216 | 78 | 315 | 1.0 | 3.0 | 0.00 | 0.00 | 0.00 | 64 | 1014.3 |
| 20260902210503 | 79 | 315 | 1.0 | 3.0 | 0.00 | 0.00 | 0.00 | 64 | 1014.3 |
| 20260902210003 | 79 | 0 | 0.0 | 0.0 | 0.00 | 0.00 | 0.00 | 63 | 1014.3 |
| 20260902205503 | 79 | 0 | 0.0 | 0.0 | 0.00 | 0.00 | 0.00 | 63 | 1014.3 |
| 20260902205003 | 80 | 360 | 0.0 | 1.0 | 0.00 | 0.00 | 0.00 | 62 | 1014.3 |
| 20260902204503 | 80 | 14 | 1.0 | 2.0 | 0.00 | 0.00 | 0.00 | 62 | 1014.3 |
| 20260902204003 | 81 | 19 | 0.0 | 2.0 | 0.00 | 0.00 | 0.00 | 61 | 1014.3 |
| 20260902203504 | 81 | 0 | 0.0 | 0.0 | 0.00 | 0.00 | 0.00 | 60 | 1014.3 |
| 20260902203004 | 81 | 0 | 0.0 | 0.0 | 0.00 | 0.00 | 0.00 | 60 | 1014.3 |
| 20260902202504 | 81 | 0 | 0.0 | 0.0 | 0.00 | 0.00 | 0.00 | 60 | 1014.3 |
| 20260902202004 | 81 | 0 | 0.0 | 0.0 | 0.00 | 0.00 | 0.00 | 60 | 1014.3 |
| 20260902201504 | 81 | 22 | 0.0 | 1.0 | 0.00 | 0.00 | 0.00 | 60 | 1014.3 |
| 20260902201005 | 82 | 11 | 0.0 | 1.0 | 0.00 | 0.00 | 0.00 | 60 | 1014.3 |
| 20260902200504 | 82 | 21 | 1.0 | 4.0 | 0.00 | 0.00 | 0.00 | 60 | 1014.3 |
| 20260902200004 | 82 | 18 | 2.0 | 4.0 | 0.00 | 0.00 | 0.00 | 61 | 1014.3 |
| 20260902195504 | 82 | 18 | 1.0 | 4.0 | 0.00 | 0.00 | 0.00 | 60 | 1014.3 |
| 20260902195004 | 82 | 5 | 2.0 | 3.0 | 0.00 | 0.00 | 0.00 | 60 | 1014.3 |
| 20260902194716 | 82 | 4 | 2.0 | 4.0 | 0.00 | 0.00 | 0.00 | 60 | 1014.3 |
| 20260902194004 | 83 | 342 | 2.0 | 5.0 | 0.00 | 0.00 | 0.00 | 60 | 1014.3 |
| 20260902193504 | 83 | 335 | 4.0 | 5.0 | 0.00 | 0.00 | 0.00 | 59 | 1014.3 |
| 20260902193215 | 83 | 341 | 4.0 | 6.0 | 0.00 | 0.00 | 0.00 | 60 | 1014.3 |
| 20260902192504 | 84 | 340 | 5.0 | 10.0 | 0.00 | 0.00 | 0.00 | 59 | 1014.3 |
| 20260902192216 | 84 | 334 | 5.0 | 10.0 | 0.00 | 0.00 | 0.00 | 59 | 1014.3 |
| 20260902191504 | 84 | 324 | 6.0 | 9.0 | 0.00 | 0.00 | 0.00 | 58 | 1014.3 |
| 20260902191004 | 84 | 333 | 7.0 | 10.0 | 0.00 | 0.00 | 0.00 | 57 | 1014.3 |
| 20260902190504 | 85 | 337 | 8.0 | 10.0 | 0.00 | 0.00 | 0.00 | 56 | 1013.3 |
| 20260902190004 | 85 | 322 | 10.0 | 14.0 | 0.00 | 0.00 | 0.00 | 55 | 1013.3 |
| 20260902185504 | 85 | 316 | 10.0 | 14.0 | 0.00 | 0.00 | 0.00 | 54 | 1013.3 |
| 20260902185004 | 85 | 322 | 9.0 | 13.0 | 0.00 | 0.00 | 0.00 | 52 | 1013.3 |
| 20260902184504 | 85 | 320 | 9.0 | 13.0 | 0.00 | 0.00 | 0.00 | 51 | 1013.3 |
| 20260902184004 | 85 | 312 | 8.0 | 11.0 | 0.00 | 0.00 | 0.00 | 49 | 1013.3 |
| 20260902183504 | 86 | 315 | 8.0 | 11.0 | 0.00 | 0.00 | 0.00 | 47 | 1013.3 |
| 20260902183004 | 86 | 320 | 8.0 | 9.0 | 0.00 | 0.00 | 0.00 | 45 | 1013.3 |
| 20260902182714 | 86 | 323 | 8.0 | 9.0 | 0.00 | 0.00 | 0.00 | 45 | 1013.3 |
| 20260902182217 | 86 | 320 | 7.0 | 9.0 | 0.00 | 0.00 | 0.00 | 45 | 1013.3 |
| 20260902181503 | 87 | 326 | 6.0 | 8.0 | 0.00 | 0.00 | 0.00 | 44 | 1013.3 |
| 20260902181003 | 87 | 318 | 6.0 | 8.0 | 0.00 | 0.00 | 0.00 | 44 | 1013.3 |
| 20260902180503 | 88 | 324 | 6.0 | 8.0 | 0.00 | 0.00 | 0.00 | 43 | 1013.3 |
| 20260902180006 | 88 | 328 | 6.0 | 8.0 | 0.00 | 0.00 | 0.00 | 42 | 1013.3 |
| 20260902175503 | 89 | 321 | 5.0 | 7.0 | 0.00 | 0.00 | 0.00 | 41 | 1013.3 |
| 20260902175005 | 89 | 327 | 4.0 | 6.0 | 0.00 | 0.00 | 0.00 | 41 | 1013.3 |
| 20260902174503 | 89 | 338 | 3.0 | 5.0 | 0.00 | 0.00 | 0.00 | 40 | 1013.3 |
| 20260902174004 | 90 | 338 | 4.0 | 5.0 | 0.00 | 0.00 | 0.00 | 39 | 1013.3 |
| 20260902173503 | 90 | 331 | 5.0 | 9.0 | 0.00 | 0.00 | 0.00 | 38 | 1013.3 |
| 20260902173003 | 91 | 324 | 8.0 | 13.0 | 0.00 | 0.00 | 0.00 | 38 | 1013.3 |
| 20260902172714 | 91 | 321 | 8.0 | 13.0 | 0.00 | 0.00 | 0.00 | 38 | 1013.3 |
| 20260902172004 | 91 | 322 | 8.0 | 12.0 | 0.00 | 0.00 | 0.00 | 36 | 1013.3 |
| 20260902171503 | 92 | 317 | 7.0 | 9.0 | 0.00 | 0.00 | 0.00 | 36 | 1013.3 |
| 20260902171003 | 92 | 322 | 7.0 | 13.0 | 0.00 | 0.00 | 0.00 | 35 | 1013.3 |
| 20260902170504 | 92 | 325 | 6.0 | 13.0 | 0.00 | 0.00 | 0.00 | 35 | 1013.3 |
| 20260902170003 | 93 | 318 | 7.0 | 13.0 | 0.00 | 0.00 | 0.00 | 35 | 1013.3 |
| 20260902165503 | 93 | 331 | 9.0 | 13.0 | 0.00 | 0.00 | 0.00 | 34 | 1013.3 |
| 20260902165003 | 93 | 329 | 8.0 | 13.0 | 0.00 | 0.00 | 0.00 | 34 | 1013.3 |
| 20260902164503 | 94 | 328 | 8.0 | 12.0 | 0.00 | 0.00 | 0.00 | 36 | 1013.3 |
| 20260902164003 | 94 | 332 | 9.0 | 12.0 | 0.00 | 0.00 | 0.00 | 37 | 1013.3 |
| 20260902163503 | 94 | 323 | 10.0 | 14.0 | 0.00 | 0.00 | 0.00 | 36 | 1013.3 |
| 20260902163004 | 94 | 325 | 11.0 | 19.0 | 0.00 | 0.00 | 0.00 | 34 | 1013.3 |
| 20260902162504 | 95 | 327 | 12.0 | 19.0 | 0.00 | 0.00 | 0.00 | 33 | 1013.3 |
| 20260902162218 | 95 | 318 | 12.0 | 19.0 | 0.00 | 0.00 | 0.00 | 32 | 1013.3 |
| 20260902161716 | 95 | 316 | 12.0 | 17.0 | 0.00 | 0.00 | 0.00 | 32 | 1013.3 |
| 20260902161004 | 96 | 322 | 13.0 | 18.0 | 0.00 | 0.00 | 0.00 | 31 | 1013.3 |
| 20260902160504 | 96 | 314 | 14.0 | 21.0 | 0.00 | 0.00 | 0.00 | 30 | 1013.3 |
| 20260902160006 | 96 | 313 | 15.0 | 21.0 | 0.00 | 0.00 | 0.00 | 30 | 1013.3 |
| 20260902155504 | 96 | 317 | 15.0 | 18.0 | 0.00 | 0.00 | 0.00 | 30 | 1013.3 |
| 20260902155004 | 96 | 315 | 16.0 | 23.0 | 0.00 | 0.00 | 0.00 | 30 | 1013.3 |
| 20260902154505 | 97 | 307 | 17.0 | 23.0 | 0.00 | 0.00 | 0.00 | 31 | 1013.3 |
| 20260902154004 | 97 | 308 | 17.0 | 23.0 | 0.00 | 0.00 | 0.00 | 31 | 1013.3 |
| 20260902153504 | 97 | 317 | 16.0 | 21.0 | 0.00 | 0.00 | 0.00 | 30 | 1013.3 |
| 20260902153004 | 97 | 321 | 14.0 | 20.0 | 0.00 | 0.00 | 0.00 | 29 | 1013.3 |
| 20260902152505 | 97 | 320 | 15.0 | 19.0 | 0.00 | 0.00 | 0.00 | 28 | 1013.3 |
| 20260902152004 | 98 | 327 | 14.0 | 19.0 | 0.00 | 0.00 | 0.00 | 28 | 1013.3 |
| 20260902151504 | 98 | 323 | 13.0 | 17.0 | 0.00 | 0.00 | 0.00 | 29 | 1013.3 |
| 20260902151004 | 98 | 315 | 13.0 | 21.0 | 0.00 | 0.00 | 0.00 | 29 | 1013.3 |
| 20260902150504 | 98 | 328 | 14.0 | 23.0 | 0.00 | 0.00 | 0.00 | 29 | 1013.3 |
| 20260902150003 | 98 | 340 | 15.0 | 23.0 | 0.00 | 0.00 | 0.00 | 28 | 1013.3 |
| 20260902145504 | 98 | 336 | 14.0 | 23.0 | 0.00 | 0.00 | 0.00 | 28 | 1013.3 |
| 20260902145004 | 98 | 316 | 16.0 | 23.0 | 0.00 | 0.00 | 0.00 | 28 | 1013.3 |
| 20260902144503 | 98 | 308 | 16.0 | 28.0 | 0.00 | 0.00 | 0.00 | 29 | 1013.3 |
| 20260902144004 | 98 | 315 | 17.0 | 28.0 | 0.00 | 0.00 | 0.00 | 30 | 1013.3 |
| 20260902143504 | 98 | 312 | 17.0 | 24.0 | 0.00 | 0.00 | 0.00 | 31 | 1013.3 |
| 20260902143004 | 98 | 307 | 15.0 | 23.0 | 0.00 | 0.00 | 0.00 | 30 | 1013.3 |
| 20260902142504 | 98 | 308 | 14.0 | 23.0 | 0.00 | 0.00 | 0.00 | 38 | 1013.3 |
| 20260902142003 | 97 | 299 | 18.0 | 24.0 | 0.00 | 0.00 | 0.00 | 39 | 1013.3 |
| 20260902141504 | 97 | 304 | 19.0 | 24.0 | 0.00 | 0.00 | 0.00 | 40 | 1013.3 |
| 20260902141004 | 97 | 306 | 16.0 | 23.0 | 0.00 | 0.00 | 0.00 | 40 | 1013.3 |
| 20260902140504 | 96 | 299 | 15.0 | 23.0 | 0.00 | 0.00 | 0.00 | 40 | 1013.3 |
| 20260902140003 | 95 | 309 | 14.0 | 20.0 | 0.00 | 0.00 | 0.00 | 44 | 1013.3 |
| 20260902135714 | 95 | 308 | 15.0 | 20.0 | 0.00 | 0.00 | 0.00 | 48 | 1013.3 |
| 20260902135003 | 94 | 308 | 17.0 | 20.0 | 0.00 | 0.00 | 0.00 | 52 | 1013.3 |
| 20260902134504 | 93 | 306 | 17.0 | 21.0 | 0.00 | 0.00 | 0.00 | 54 | 1013.3 |
| 20260902134004 | 92 | 293 | 18.0 | 24.0 | 0.00 | 0.00 | 0.00 | 57 | 1013.3 |
| 20260902133503 | 91 | 277 | 18.0 | 26.0 | 0.00 | 0.00 | 0.00 | 57 | 1013.3 |
| 20260902133004 | 90 | 281 | 17.0 | 26.0 | 0.00 | 0.00 | 0.00 | 58 | 1013.3 |
| 20260902132503 | 90 | 287 | 19.0 | 27.0 | 0.00 | 0.00 | 0.00 | 59 | 1013.3 |
| 20260902132003 | 90 | 287 | 20.0 | 27.0 | 0.00 | 0.00 | 0.00 | 59 | 1014.3 |
| 20260902131503 | 90 | 282 | 20.0 | 24.0 | 0.00 | 0.00 | 0.00 | 59 | 1014.3 |
| 20260902131003 | 89 | 285 | 24.0 | 32.0 | 0.00 | 0.00 | 0.00 | 59 | 1014.3 |
| 20260902130503 | 89 | 285 | 25.0 | 32.0 | 0.00 | 0.00 | 0.00 | 60 | 1014.3 |
| 20260902130004 | 89 | 279 | 24.0 | 32.0 | 0.00 | 0.00 | 0.00 | 59 | 1014.3 |
| 20260902125503 | 89 | 280 | 23.0 | 30.0 | 0.00 | 0.00 | 0.00 | 58 | 1014.3 |
| 20260902125003 | 89 | 286 | 22.0 | 30.0 | 0.00 | 0.00 | 0.00 | 58 | 1014.3 |
| 20260902124504 | 90 | 286 | 21.0 | 26.0 | 0.00 | 0.00 | 0.00 | 57 | 1014.3 |
| 20260902124214 | 90 | 284 | 20.0 | 26.0 | 0.00 | 0.00 | 0.00 | 57 | 1014.3 |
| 20260902123503 | 90 | 284 | 22.0 | 31.0 | 0.00 | 0.00 | 0.00 | 58 | 1014.3 |
| 20260902123003 | 90 | 283 | 23.0 | 31.0 | 0.00 | 0.00 | 0.00 | 57 | 1014.3 |
| 20260902120504 | 92 | 301 | 17.0 | 19.0 | 0.00 | 0.00 | 0.00 | 45 | 1014.3 |
| 20260902115004 | 92 | 305 | 17.0 | 22.0 | 0.00 | 0.00 | 0.00 | 42 | 1014.3 |
| 20260902114504 | 92 | 300 | 15.0 | 19.0 | 0.00 | 0.00 | 0.00 | 42 | 1014.3 |
| 20260902114217 | 92 | 303 | 14.0 | 19.0 | 0.00 | 0.00 | 0.00 | 42 | 1014.3 |
| 20260902113504 | 92 | 292 | 17.0 | 24.0 | 0.00 | 0.00 | 0.00 | 43 | 1014.3 |
| 20260902113004 | 92 | 278 | 17.0 | 23.0 | 0.00 | 0.00 | 0.00 | 38 | 1014.3 |
| 20260902112504 | 93 | 275 | 15.0 | 21.0 | 0.00 | 0.00 | 0.00 | 38 | 1014.3 |
| 20260902112214 | 92 | 285 | 16.0 | 21.0 | 0.00 | 0.00 | 0.00 | 39 | 1014.3 |
| 20260902111717 | 92 | 289 | 18.0 | 22.0 | 0.00 | 0.00 | 0.00 | 40 | 1014.3 |
| 20260902111004 | 92 | 276 | 17.0 | 25.0 | 0.00 | 0.00 | 0.00 | 39 | 1014.3 |
| 20260902110504 | 92 | 272 | 16.0 | 25.0 | 0.00 | 0.00 | 0.00 | 42 | 1014.3 |
| 20260902110006 | 93 | 278 | 16.0 | 25.0 | 0.00 | 0.00 | 0.00 | 39 | 1014.3 |
| 20260902105504 | 93 | 298 | 15.0 | 22.0 | 0.00 | 0.00 | 0.00 | 42 | 1014.3 |
| 20260902105217 | 93 | 298 | 15.0 | 22.0 | 0.00 | 0.00 | 0.00 | 41 | 1014.3 |
| 20260902104504 | 93 | 296 | 14.0 | 18.0 | 0.00 | 0.00 | 0.00 | 43 | 1014.3 |
| 20260902104003 | 93 | 299 | 13.0 | 18.0 | 0.00 | 0.00 | 0.00 | 42 | 1014.3 |
| 20260902103715 | 94 | 299 | 12.0 | 18.0 | 0.00 | 0.00 | 0.00 | 43 | 1014.3 |
| 20260902103003 | 93 | 275 | 12.0 | 16.0 | 0.00 | 0.00 | 0.00 | 41 | 1015.3 |
| 20260902102503 | 93 | 272 | 12.0 | 16.0 | 0.00 | 0.00 | 0.00 | 40 | 1015.3 |
| 20260902102003 | 93 | 272 | 11.0 | 16.0 | 0.00 | 0.00 | 0.00 | 41 | 1015.3 |
| 20260902101503 | 92 | 282 | 9.0 | 15.0 | 0.00 | 0.00 | 0.00 | 41 | 1015.3 |
| 20260902101215 | 92 | 279 | 10.0 | 15.0 | 0.00 | 0.00 | 0.00 | 41 | 1015.3 |
| 20260902100504 | 92 | 277 | 9.0 | 13.0 | 0.00 | 0.00 | 0.00 | 43 | 1015.3 |
| 20260902100003 | 91 | 272 | 10.0 | 13.0 | 0.00 | 0.00 | 0.00 | 44 | 1015.3 |
| 20260902095714 | 91 | 270 | 9.0 | 13.0 | 0.00 | 0.00 | 0.00 | 46 | 1015.3 |
| 20260902095003 | 91 | 270 | 9.0 | 13.0 | 0.00 | 0.00 | 0.00 | 44 | 1015.3 |
| 20260902094503 | 90 | 270 | 10.0 | 13.0 | 0.00 | 0.00 | 0.00 | 47 | 1015.3 |
| 20260902094003 | 90 | 270 | 10.0 | 16.0 | 0.00 | 0.00 | 0.00 | 47 | 1015.3 |
| 20260902093503 | 89 | 273 | 10.0 | 16.0 | 0.00 | 0.00 | 0.00 | 49 | 1015.3 |
| 20260902093003 | 89 | 276 | 10.0 | 15.0 | 0.00 | 0.00 | 0.00 | 51 | 1015.3 |
| 20260902092503 | 89 | 288 | 10.0 | 15.0 | 0.00 | 0.00 | 0.00 | 52 | 1015.3 |
| 20260902092003 | 89 | 288 | 10.0 | 15.0 | 0.00 | 0.00 | 0.00 | 53 | 1015.3 |
| 20260902091504 | 88 | 270 | 11.0 | 15.0 | 0.00 | 0.00 | 0.00 | 51 | 1015.3 |
| 20260902091003 | 88 | 278 | 12.0 | 14.0 | 0.00 | 0.00 | 0.00 | 56 | 1015.3 |
| 20260902090503 | 88 | 281 | 12.0 | 14.0 | 0.00 | 0.00 | 0.00 | 58 | 1015.3 |
| 20260902090004 | 88 | 275 | 10.0 | 14.0 | 0.00 | 0.00 | 0.00 | 61 | 1015.3 |
| 20260902085503 | 88 | 285 | 9.0 | 14.0 | 0.00 | 0.00 | 0.00 | 62 | 1015.3 |
| 20260902085218 | 87 | 281 | 10.0 | 14.0 | 0.00 | 0.00 | 0.00 | 61 | 1015.3 |
| 20260902084716 | 87 | 283 | 10.0 | 14.0 | 0.00 | 0.00 | 0.00 | 64 | 1015.3 |
| 20260902084004 | 87 | 271 | 9.0 | 12.0 | 0.00 | 0.00 | 0.00 | 66 | 1015.3 |
| 20260902083504 | 86 | 228 | 8.0 | 12.0 | 0.00 | 0.00 | 0.00 | 67 | 1015.3 |
| 20260902083004 | 85 | 183 | 7.0 | 9.0 | 0.00 | 0.00 | 0.00 | 71 | 1015.3 |
| 20260902082504 | 85 | 180 | 7.0 | 9.0 | 0.00 | 0.00 | 0.00 | 72 | 1015.3 |
| 20260902082004 | 84 | 180 | 7.0 | 9.0 | 0.00 | 0.00 | 0.00 | 72 | 1015.3 |
| 20260902081504 | 83 | 180 | 8.0 | 10.0 | 0.00 | 0.00 | 0.00 | 72 | 1015.3 |
| 20260902081004 | 83 | 178 | 8.0 | 14.0 | 0.00 | 0.00 | 0.00 | 72 | 1015.3 |
| 20260902080505 | 83 | 178 | 8.0 | 14.0 | 0.00 | 0.00 | 0.00 | 72 | 1015.3 |
| 20260902080218 | 83 | 183 | 7.0 | 9.0 | 0.00 | 0.00 | 0.00 | 72 | 1015.3 |
| 20260902075504 | 82 | 194 | 6.0 | 13.0 | 0.00 | 0.00 | 0.00 | 71 | 1015.3 |
| 20260902075004 | 82 | 193 | 6.0 | 13.0 | 0.00 | 0.00 | 0.00 | 71 | 1014.3 |
| 20260902074504 | 82 | 198 | 6.0 | 8.0 | 0.00 | 0.00 | 0.00 | 72 | 1014.3 |
| 20260902074004 | 82 | 187 | 6.0 | 8.0 | 0.00 | 0.00 | 0.00 | 72 | 1014.3 |
| 20260902073504 | 82 | 180 | 5.0 | 7.0 | 0.00 | 0.00 | 0.00 | 72 | 1014.3 |
| 20260902073004 | 82 | 205 | 3.0 | 5.0 | 0.00 | 0.00 | 0.00 | 72 | 1014.3 |
| 20260902072504 | 82 | 213 | 3.0 | 5.0 | 0.00 | 0.00 | 0.00 | 72 | 1014.3 |
| 20260902072003 | 81 | 206 | 4.0 | 8.0 | 0.00 | 0.00 | 0.00 | 72 | 1014.3 |
| 20260902071504 | 81 | 188 | 6.0 | 8.0 | 0.00 | 0.00 | 0.00 | 72 | 1014.3 |
| 20260902071004 | 81 | 181 | 5.0 | 8.0 | 0.00 | 0.00 | 0.00 | 72 | 1014.3 |
| 20260902070504 | 82 | 194 | 2.0 | 6.0 | 0.00 | 0.00 | 0.00 | 73 | 1014.3 |
| 20260902070213 | 82 | 284 | 1.0 | 3.0 | 0.00 | 0.00 | 0.00 | 73 | 1014.3 |
| 20260902065504 | 82 | 299 | 1.0 | 3.0 | 0.00 | 0.00 | 0.00 | 74 | 1014.3 |
| 20260902065214 | 81 | 305 | 1.0 | 3.0 | 0.00 | 0.00 | 0.00 | 74 | 1014.3 |
| 20260902064504 | 81 | 315 | 1.0 | 2.0 | 0.00 | 0.00 | 0.00 | 74 | 1014.3 |
| 20260902064215 | 81 | 315 | 0.0 | 2.0 | 0.00 | 0.00 | 0.00 | 74 | 1014.3 |
| 20260902063713 | 81 | 315 | 0.0 | 1.0 | 0.00 | 0.00 | 0.00 | 74 | 1014.3 |
| 20260902063003 | 80 | 329 | 1.0 | 4.0 | 0.00 | 0.00 | 0.00 | 75 | 1014.3 |
| 20260902062503 | 79 | 349 | 1.0 | 3.0 | 0.00 | 0.00 | 0.00 | 75 | 1014.3 |
| 20260902062003 | 78 | 330 | 1.0 | 3.0 | 0.00 | 0.00 | 0.00 | 76 | 1014.3 |
| 20260902061003 | 78 | 315 | 1.0 | 3.0 | 0.00 | 0.00 | 0.00 | 77 | 1014.3 |
| 20260902060503 | 78 | 315 | 0.0 | 2.0 | 0.00 | 0.00 | 0.00 | 77 | 1014.3 |
| 20260902060003 | 77 | 315 | 0.0 | 2.0 | 0.00 | 0.00 | 0.00 | 77 | 1014.3 |
| 20260902055717 | 77 | 315 | 0.0 | 2.0 | 0.00 | 0.00 | 0.00 | 78 | 1014.3 |
| 20260902055003 | 76 | 315 | 0.0 | 3.0 | 0.00 | 0.00 | 0.00 | 78 | 1014.3 |
| 20260902054713 | 76 | 315 | 1.0 | 3.0 | 0.00 | 0.00 | 0.00 | 78 | 1014.3 |
| 20260902054003 | 75 | 315 | 2.0 | 3.0 | 0.00 | 0.00 | 0.00 | 78 | 1014.3 |
| 20260902053503 | 75 | 315 | 1.0 | 3.0 | 0.00 | 0.00 | 0.00 | 78 | 1014.3 |
| 20260902053003 | 75 | 315 | 1.0 | 2.0 | 0.00 | 0.00 | 0.00 | 78 | 1014.3 |
| 20260902052503 | 75 | 356 | 1.0 | 2.0 | 0.00 | 0.00 | 0.00 | 78 | 1014.3 |
| 20260902052003 | 75 | 349 | 1.0 | 3.0 | 0.00 | 0.00 | 0.00 | 78 | 1014.3 |
| 20260902051503 | 75 | 341 | 2.0 | 4.0 | 0.00 | 0.00 | 0.00 | 78 | 1014.3 |
| 20260902051003 | 76 | 348 | 1.0 | 4.0 | 0.00 | 0.00 | 0.00 | 79 | 1014.3 |
| 20260902050504 | 76 | 25 | 2.0 | 4.0 | 0.00 | 0.00 | 0.00 | 79 | 1014.3 |
| 20260902050007 | 76 | 60 | 1.0 | 4.0 | 0.00 | 0.00 | 0.00 | 80 | 1014.3 |
| 20260902045717 | 75 | 88 | 1.0 | 4.0 | 0.00 | 0.00 | 0.00 | 80 | 1014.3 |
| 20260902045004 | 75 | 180 | 1.0 | 3.0 | 0.00 | 0.00 | 0.00 | 80 | 1014.3 |
| 20260902044504 | 75 | 315 | 1.0 | 3.0 | 0.00 | 0.00 | 0.00 | 80 | 1014.3 |
| 20260902044004 | 75 | 315 | 2.0 | 4.0 | 0.00 | 0.00 | 0.00 | 80 | 1014.3 |
| 20260902043504 | 75 | 308 | 3.0 | 4.0 | 0.00 | 0.00 | 0.00 | 80 | 1014.3 |
| 20260902043004 | 76 | 287 | 2.0 | 4.0 | 0.00 | 0.00 | 0.00 | 80 | 1014.3 |
| 20260902042504 | 76 | 245 | 1.0 | 3.0 | 0.00 | 0.00 | 0.00 | 81 | 1014.3 |
| 20260902042004 | 76 | 180 | 0.0 | 2.0 | 0.00 | 0.00 | 0.00 | 81 | 1013.3 |
| 20260902041505 | 76 | 315 | 0.0 | 2.0 | 0.00 | 0.00 | 0.00 | 81 | 1013.3 |
| 20260902041215 | 76 | 299 | 1.0 | 2.0 | 0.00 | 0.00 | 0.00 | 81 | 1013.3 |
| 20260902040717 | 76 | 285 | 1.0 | 2.0 | 0.00 | 0.00 | 0.00 | 82 | 1013.3 |
| 20260902040004 | 76 | 274 | 1.0 | 2.0 | 0.00 | 0.00 | 0.00 | 82 | 1013.3 |
| 20260902035504 | 76 | 257 | 1.0 | 5.0 | 0.00 | 0.00 | 0.00 | 83 | 1013.3 |
| 20260902035004 | 76 | 284 | 1.0 | 5.0 | 0.00 | 0.00 | 0.00 | 83 | 1013.3 |
| 20260902034505 | 76 | 33 | 1.0 | 2.0 | 0.00 | 0.00 | 0.00 | 83 | 1013.3 |
| 20260902034003 | 76 | 83 | 1.0 | 3.0 | 0.00 | 0.00 | 0.00 | 83 | 1013.3 |
| 20260902033503 | 76 | 90 | 0.0 | 3.0 | 0.00 | 0.00 | 0.00 | 83 | 1013.3 |
| 20260902033003 | 76 | 337 | 0.0 | 2.0 | 0.00 | 0.00 | 0.00 | 83 | 1013.3 |
| 20260902032504 | 76 | 356 | 2.0 | 4.0 | 0.00 | 0.00 | 0.00 | 83 | 1013.3 |
| 20260902032004 | 76 | 7 | 2.0 | 4.0 | 0.00 | 0.00 | 0.00 | 84 | 1013.3 |
| 20260902031505 | 77 | 29 | 2.0 | 5.0 | 0.00 | 0.00 | 0.00 | 84 | 1013.3 |
| 20260902031003 | 77 | 37 | 3.0 | 5.0 | 0.00 | 0.00 | 0.00 | 84 | 1013.3 |
| 20260902030504 | 77 | 32 | 3.0 | 4.0 | 0.00 | 0.00 | 0.00 | 84 | 1013.3 |
| 20260902030003 | 77 | 28 | 3.0 | 5.0 | 0.00 | 0.00 | 0.00 | 85 | 1013.3 |
| 20260902025504 | 77 | 28 | 5.0 | 8.0 | 0.00 | 0.00 | 0.00 | 84 | 1013.3 |
| 20260902025003 | 77 | 34 | 6.0 | 8.0 | 0.00 | 0.00 | 0.00 | 86 | 1013.3 |
| 20260902024505 | 77 | 48 | 5.0 | 8.0 | 0.00 | 0.00 | 0.00 | 86 | 1013.3 |
| 20260902024003 | 76 | 42 | 5.0 | 11.0 | 0.00 | 0.00 | 0.00 | 86 | 1013.3 |
| 20260902023715 | 76 | 39 | 5.0 | 11.0 | 0.00 | 0.00 | 0.00 | 86 | 1013.3 |
| 20260902023004 | 76 | 19 | 4.0 | 5.0 | 0.00 | 0.00 | 0.00 | 86 | 1014.3 |
| 20260902022503 | 75 | 15 | 3.0 | 5.0 | 0.00 | 0.00 | 0.00 | 85 | 1014.3 |
| 20260902022003 | 75 | 7 | 3.0 | 5.0 | 0.00 | 0.00 | 0.00 | 85 | 1014.3 |
| 20260902021503 | 75 | 15 | 3.0 | 5.0 | 0.00 | 0.00 | 0.00 | 84 | 1014.3 |
| 20260902021216 | 75 | 19 | 3.0 | 5.0 | 0.00 | 0.00 | 0.00 | 84 | 1014.3 |
| 20260902020503 | 75 | 16 | 3.0 | 4.0 | 0.00 | 0.00 | 0.00 | 83 | 1014.3 |
| 20260902020005 | 75 | 13 | 3.0 | 4.0 | 0.00 | 0.00 | 0.00 | 83 | 1014.3 |
| 20260902015503 | 75 | 24 | 3.0 | 4.0 | 0.00 | 0.00 | 0.00 | 83 | 1014.3 |
| 20260902015003 | 76 | 35 | 2.0 | 3.0 | 0.00 | 0.00 | 0.00 | 82 | 1014.3 |
| 20260902014503 | 76 | 35 | 1.0 | 3.0 | 0.00 | 0.00 | 0.00 | 82 | 1014.3 |
| 20260902014003 | 76 | 45 | 0.0 | 2.0 | 0.00 | 0.00 | 0.00 | 82 | 1014.3 |